| time (UTC) | temp C | wind direction | speed KPH | gust KPH | rain 1hr cm | rain 24hr cm | rain mn cm | humidity % | barometer mb |
| 20260905043417 | 24 | 267 | 0.0 | 6.4 | 0.00 | 0.05 | 0.00 | 85 | 1011.9 |
| 20260905042407 | 24 | 273 | 0.0 | 8.0 | 0.00 | 0.05 | 0.00 | 85 | 1012.0 |
| 20260905040239 | 24 | 256 | 0.0 | 1.6 | 0.00 | 0.23 | 0.00 | 86 | 1012.1 |
| 20260905034157 | 24 | 256 | 0.0 | 0.0 | 0.00 | 2.16 | 0.23 | 87 | 1012.3 |
| 20260905033202 | 24 | 257 | 0.0 | 0.0 | 0.00 | 2.36 | 0.23 | 86 | 1012.3 |
| 20260905032136 | 24 | 257 | 0.0 | 1.6 | 0.00 | 2.36 | 0.23 | 86 | 1012.2 |
| 20260905031104 | 24 | 257 | 0.0 | 4.8 | 0.00 | 2.36 | 0.23 | 86 | 1012.3 |
| 20260905030104 | 24 | 256 | 0.0 | 0.0 | 0.00 | 2.36 | 0.23 | 86 | 1012.2 |
| 20260905025116 | 24 | 256 | 0.0 | 0.0 | 0.00 | 2.36 | 0.23 | 87 | 1012.2 |
| 20260905024129 | 24 | 256 | 0.0 | 0.0 | 0.00 | 2.36 | 0.23 | 86 | 1012.3 |
| 20260905023146 | 24 | 256 | 0.0 | 0.0 | 0.00 | 2.36 | 0.23 | 86 | 1012.3 |
| 20260905021017 | 25 | 256 | 0.0 | 0.0 | 0.00 | 2.36 | 0.23 | 86 | 1011.9 |
| 20260905020032 | 25 | 256 | 0.0 | 0.0 | 0.00 | 2.36 | 0.23 | 85 | 1011.9 |
| 20260905015048 | 25 | 256 | 0.0 | 0.0 | 0.00 | 2.36 | 0.23 | 85 | 1012.0 |
| 20260905014025 | 25 | 256 | 0.0 | 1.6 | 0.00 | 2.36 | 0.23 | 84 | 1011.9 |
| 20260905010800 | 25 | 256 | 0.0 | 0.0 | 0.00 | 2.36 | 0.23 | 83 | 1011.4 |
| 20260905005747 | 25 | 256 | 0.0 | 0.0 | 0.00 | 2.36 | 0.23 | 83 | 1011.1 |
| 20260905004746 | 26 | 256 | 0.0 | 0.0 | 0.00 | 2.36 | 0.23 | 82 | 1011.2 |
| 20260905001456 | 26 | 255 | 0.0 | 0.0 | 0.00 | 2.36 | 0.23 | 81 | 1011.2 |
| 20260904235300 | 26 | 255 | 0.0 | 6.4 | 0.00 | 2.36 | 0.23 | 80 | 1011.1 |
| 20260904233121 | 26 | 263 | 0.0 | 0.0 | 0.00 | 2.36 | 0.23 | 83 | 1011.4 |
| 20260904232136 | 26 | 263 | 0.0 | 0.0 | 0.00 | 2.36 | 0.23 | 83 | 1011.4 |
| 20260904231108 | 27 | 263 | 0.0 | 0.0 | 0.00 | 2.36 | 0.23 | 81 | 1011.4 |
| 20260904224939 | 27 | 263 | 0.0 | 0.0 | 0.00 | 2.36 | 0.23 | 80 | 1011.2 |
| 20260904222845 | 27 | 263 | 0.0 | 1.6 | 0.00 | 2.36 | 0.23 | 80 | 1011.4 |
| 20260904221854 | 27 | 263 | 0.0 | 0.0 | 0.00 | 2.36 | 0.23 | 80 | 1011.3 |
| 20260904220831 | 27 | 263 | 0.0 | 1.6 | 0.00 | 2.36 | 0.23 | 80 | 1011.6 |
| 20260904215818 | 27 | 263 | 0.0 | 0.0 | 0.00 | 2.36 | 0.23 | 81 | 1011.6 |
| 20260904214808 | 27 | 263 | 0.0 | 0.0 | 0.00 | 2.36 | 0.23 | 80 | 1011.7 |
| 20260904213821 | 27 | 263 | 0.0 | 0.0 | 0.00 | 2.36 | 0.23 | 79 | 1011.8 |
| 20260904212800 | 27 | 263 | 0.0 | 0.0 | 0.00 | 2.36 | 0.23 | 78 | 1011.8 |
| 20260904211821 | 28 | 277 | 1.6 | 11.3 | 0.00 | 2.36 | 0.23 | 79 | 1012.1 |
| 20260904210750 | 28 | 291 | 0.0 | 4.8 | 0.00 | 2.36 | 0.23 | 80 | 1012.2 |
| 20260904205748 | 29 | 5 | 0.0 | 0.0 | 0.00 | 2.36 | 0.23 | 78 | 1012.3 |
| 20260904204742 | 30 | 5 | 0.0 | 0.0 | 0.00 | 2.36 | 0.23 | 75 | 1012.1 |
| 20260904203727 | 30 | 5 | 0.0 | 0.0 | 0.00 | 2.36 | 0.23 | 69 | 1012.2 |
| 20260904202713 | 30 | 5 | 0.0 | 0.0 | 0.00 | 2.36 | 0.23 | 67 | 1012.4 |
| 20260904201710 | 31 | 5 | 0.0 | 0.0 | 0.00 | 2.36 | 0.23 | 66 | 1012.3 |
| 20260904200709 | 31 | 5 | 0.0 | 1.6 | 0.00 | 2.36 | 0.23 | 64 | 1012.3 |
| 20260904195710 | 31 | 5 | 0.0 | 1.6 | 0.00 | 2.36 | 0.23 | 64 | 1011.9 |
| 20260904193617 | 31 | 5 | 0.0 | 0.0 | 0.00 | 2.36 | 0.23 | 62 | 1011.9 |
| 20260904192613 | 31 | 5 | 0.0 | 6.4 | 0.00 | 2.36 | 0.23 | 61 | 1012.0 |
| 20260904191550 | 32 | 19 | 0.0 | 4.8 | 0.00 | 2.36 | 0.23 | 58 | 1011.9 |
| 20260904190533 | 33 | 146 | 0.0 | 3.2 | 0.00 | 2.36 | 0.23 | 58 | 1012.0 |
| 20260904185515 | 32 | 143 | 0.0 | 1.6 | 0.00 | 2.36 | 0.23 | 59 | 1012.2 |
| 20260904184513 | 32 | 350 | 0.0 | 4.8 | 0.00 | 2.36 | 0.23 | 57 | 1012.6 |
| 20260904183513 | 33 | 167 | 0.0 | 6.4 | 0.00 | 2.36 | 0.23 | 57 | 1012.8 |
| 20260904182515 | 33 | 349 | 0.0 | 8.0 | 0.00 | 2.36 | 0.23 | 55 | 1012.9 |
| 20260904181534 | 33 | 311 | 0.0 | 8.0 | 0.00 | 2.36 | 0.23 | 52 | 1012.9 |
| 20260904180512 | 33 | 243 | 0.0 | 1.6 | 0.00 | 2.36 | 0.23 | 53 | 1013.0 |
| 20260904175500 | 33 | 245 | 1.6 | 6.4 | 0.00 | 2.36 | 0.23 | 53 | 1013.0 |
| 20260904174444 | 32 | 320 | 0.0 | 6.4 | 0.00 | 2.36 | 0.23 | 55 | 1013.1 |
| 20260904172402 | 33 | 258 | 1.6 | 8.0 | 0.00 | 2.36 | 0.23 | 54 | 1013.3 |
| 20260904171330 | 32 | 346 | 0.0 | 8.0 | 0.00 | 2.36 | 0.23 | 57 | 1013.4 |
| 20260904170256 | 32 | 349 | 1.6 | 8.0 | 0.00 | 2.36 | 0.23 | 57 | 1013.3 |
| 20260904164130 | 32 | 337 | 0.0 | 4.8 | 0.00 | 2.36 | 0.23 | 59 | 1013.6 |
| 20260904163118 | 32 | 28 | 1.6 | 9.7 | 0.00 | 2.36 | 0.23 | 58 | 1013.7 |
| 20260904162134 | 32 | 302 | 1.6 | 9.7 | 0.00 | 2.36 | 0.23 | 58 | 1013.9 |
| 20260904161102 | 31 | 339 | 0.0 | 6.4 | 0.00 | 2.36 | 0.23 | 62 | 1014.0 |
| 20260904160108 | 31 | 313 | 0.0 | 9.7 | 0.00 | 2.36 | 0.23 | 63 | 1013.9 |
| 20260904155108 | 32 | 307 | 3.2 | 9.7 | 0.00 | 2.36 | 0.23 | 59 | 1014.0 |
| 20260904154041 | 31 | 338 | 0.0 | 9.7 | 0.00 | 2.36 | 0.23 | 64 | 1013.9 |
| 20260904153032 | 29 | 355 | 1.6 | 8.0 | 0.00 | 2.36 | 0.23 | 69 | 1013.9 |
| 20260904150841 | 30 | 314 | 1.6 | 6.4 | 0.00 | 2.36 | 0.23 | 65 | 1014.1 |
| 20260904145829 | 30 | 314 | 1.6 | 8.0 | 0.00 | 2.36 | 0.23 | 65 | 1014.2 |
| 20260904144756 | 28 | 335 | 1.6 | 8.0 | 0.00 | 2.36 | 0.23 | 70 | 1014.4 |
| 20260904142608 | 29 | 306 | 0.0 | 4.8 | 0.00 | 2.36 | 0.23 | 70 | 1014.3 |
| 20260904105332 | 22 | 343 | 0.0 | 0.0 | 0.00 | 2.36 | 0.23 | 94 | 1013.8 |
| 20260904104326 | 22 | 343 | 0.0 | 0.0 | 0.00 | 2.36 | 0.23 | 95 | 1013.9 |
| 20260904103346 | 22 | 343 | 0.0 | 0.0 | 0.00 | 2.36 | 0.23 | 95 | 1014.0 |
| 20260904102331 | 22 | 343 | 0.0 | 0.0 | 0.00 | 2.36 | 0.23 | 95 | 1013.6 |
| 20260904101314 | 22 | 343 | 0.0 | 0.0 | 0.00 | 2.36 | 0.23 | 95 | 1013.8 |
| 20260904100338 | 22 | 343 | 0.0 | 3.2 | 0.00 | 2.36 | 0.23 | 94 | 1013.8 |
| 20260904095352 | 22 | 340 | 0.0 | 4.8 | 0.00 | 2.36 | 0.23 | 95 | 1013.5 |
| 20260904094347 | 22 | 215 | 0.0 | 0.0 | 0.00 | 2.36 | 0.23 | 94 | 1012.8 |
| 20260904093317 | 22 | 215 | 0.0 | 0.0 | 0.00 | 2.36 | 0.23 | 94 | 1012.7 |
| 20260904092248 | 22 | 208 | 0.0 | 0.0 | 0.00 | 2.36 | 0.23 | 94 | 1012.4 |
| 20260904091214 | 22 | 208 | 0.0 | 0.0 | 0.00 | 2.36 | 0.23 | 94 | 1012.6 |
| 20260904090226 | 22 | 208 | 0.0 | 0.0 | 0.00 | 2.36 | 0.23 | 94 | 1012.7 |
| 20260904084046 | 22 | 208 | 0.0 | 0.0 | 0.00 | 2.36 | 0.23 | 94 | 1012.8 |
| 20260904083103 | 22 | 208 | 0.0 | 0.0 | 0.00 | 2.36 | 0.23 | 94 | 1012.9 |
| 20260904082032 | 22 | 208 | 0.0 | 0.0 | 0.00 | 2.36 | 0.23 | 94 | 1013.0 |
| 20260904081005 | 22 | 208 | 0.0 | 0.0 | 0.00 | 2.36 | 0.23 | 94 | 1012.9 |
| 20260904075949 | 22 | 208 | 0.0 | 0.0 | 0.00 | 2.36 | 0.23 | 94 | 1013.0 |
| 20260904074934 | 22 | 208 | 0.0 | 0.0 | 0.00 | 2.36 | 0.23 | 94 | 1013.1 |
| 20260904073911 | 22 | 208 | 0.0 | 0.0 | 0.00 | 2.36 | 0.23 | 94 | 1013.2 |
| 20260904064232 | 22 | 270 | 0.0 | 0.0 | 0.00 | 2.36 | 0.23 | 94 | 1012.8 |
| 20260904063235 | 22 | 270 | 0.0 | 0.0 | 0.00 | 2.36 | 0.23 | 94 | 1012.6 |
| 20260904062219 | 22 | 270 | 0.0 | 0.0 | 0.00 | 2.36 | 0.23 | 93 | 1012.7 |
| 20260904061236 | 22 | 270 | 0.0 | 0.0 | 0.00 | 2.36 | 0.23 | 93 | 1012.5 |
| 20260904060249 | 22 | 270 | 0.0 | 0.0 | 0.00 | 2.36 | 0.23 | 93 | 1012.3 |
| 20260904055248 | 22 | 270 | 0.0 | 0.0 | 0.00 | 2.36 | 0.23 | 93 | 1012.1 |
| 20260904054240 | 22 | 270 | 0.0 | 0.0 | 0.00 | 2.36 | 0.23 | 93 | 1012.6 |
| 20260904052101 | 22 | 269 | 1.6 | 6.4 | 0.00 | 2.34 | 0.20 | 93 | 1013.2 |
| 20260904051028 | 22 | 202 | 0.0 | 4.8 | 0.00 | 2.31 | 0.15 | 93 | 1013.1 |
| 20260904045954 | 22 | 196 | 0.0 | 1.6 | 0.00 | 2.31 | 0.15 | 93 | 1013.3 |